Location: Buchloe
(48.0161°N, 10.7316°E)
Time: 16:01:41
(UTC+02:00)

ISS - Visible Passes

Search period start: 19 October 2018 00:00
Search period end: 28 October 2018 23:00
Orbit: 403 x 408 km, 51.6° (Epoch: 19 October)

Date Brightness Start Highest point End Pass type
(mag) Time Alt. Az. Time Alt. Az. Time Alt. Az.
26 Oct -1.0 07:06:04 10° S 07:08:26 19° SE 07:10:49 10° E visible
27 Oct -0.7 06:15:38 10° SSE 06:16:39 11° SE 06:17:40 10° ESE visible
28 Oct -2.3 05:57:34 10° SW 06:00:37 36° SE 06:03:40 10° ENE visible
